SCP
1 1 1 1 1 1 1 1 0 0 0 0 0 0 0 0 0 0 0 0 0 0 0 0 0 0 0 0 0 0 0 0 0 0 0 0 0 0
1 1 1 1 1 1 1 1 1 0 0 0 0 0 0 0 0 0 0 0 0 0 0 0 0 0 0 0 0 0 0 0 0 0 0 0 0 0
1 1 1 1 1 1 1 1 1 1 0 0 0 0 0 0 0 0 0 0 0 0 0 0 0 0 0 0 0 0 0 0 0 0 0 0 0 0
1 1 1 1 1 1 1 1 1 1 1 0 0 0 0 0 0 0 0 0 0 0 0 0 0 0 0 0 0 0 0 0 0 0 0 0 0 0
1 1 1 1 1 1 1 1 1 1 1 1 0 0 0 0 0 0 0 0 0 0 0 0 0 0 0 0 0 0 0 0 0 0 0 0 0 0
1 1 1 1 1 1 1 1 1 1 1 1 1 0 0 0 0 0 0 0 0 0 0 0 0 0 0 0 0 0 0 0 0 0 0 0 0 0
1 1 1 1 1 1 1 1 1 1 1 1 1 0 0 0 0 0 0 0 0 0 0 0 0 0 0 0 0 0 0 -0 0 0 0 0 0 0
1 1 1 1 1 1 0 0 0 0 1 1 1 0 0 0 0 0 0 0 0 0 0 0 0 0 0 0 0 0 0 0 0 0 0 0 0 0
1 1 1 1 1 1 0 0 0 0 0 0 0 0 0 0 0 0 0 0 0 0 0 0 0 0 0 0 0 0 0 0 0 0 0 0 0 0
1 1 1 1 1 1 1 0 0 0 0 0 0 0 0 0 0 0 0 0 0 0 0 0 0 0 0 0 0 0 0 0 0 0 0 0 0 0
1 1 1 1 1 1 0 0 0 0 0 0 0 0 0 0 0 0 0 0 0 0 0 0 0 0 0 0 0 0 0 0 0 0 0 0 0 0
1 1 0 0 0 0 0 0 0 0 0 0 0 0 0 0 0 0 0 0 0 0 0 0 0 0 0 0 0 0 0 0 0 0 0 0 0 0
1 0 0 0 0 0 0 0 0 0 0 0 0 0 0 0 0 0 0 0 0 0 0 0 0 0 0 0 0 0 0 0 0 0 0 0 0 0
0 0 0 0 0 0 0 0 0 0 0 0 0 0 0 0 0 0 0 0 0 0 0 0 0 0 0 0 0 0 0 0 0 0 0 0 0 0
0 0 0 0 0 0 0 0 0 0 0 0 0 0 0 0 0 0 0 0 0 0 0 0 0 0 0 0 0 0 0 0 0 0 0 0 0 0
0 0 0 0 0 0 0 0 0 0 0 0 0 0 0 0 0 0 0 0 0 0 0 0 0 0 0 0 0 0 0 0 0 0 0 0 0 0
0 0 0 0 0 0 0 0 0 0 0 0 0 0 0 0 0 0 0 0 0 0 0 0 0 0 0 0 0 0 0 0 0 0 0 0 0 0
0 0 0 0 0 0 0 0 0 0 0 0 0 0 0 0 0 0 0 0 0 0 0 0 0 0 0 0 0 0 0 0 0 0 0 0 0 0
0 0 0 0 1 1 0 0 0 0 0 0 0 0 0 0 0 0 0 0 0 0 0 0 0 0 0 0 0 0 0 0 0 0 0 0 0 0
0 0 0 0 0 1 1 0 0 0 0 0 0 0 0 0 0 0 0 0 0 0 0 0 0 0 0 0 0 0 0 0 0 0 0 0 0 0
0 0 0 0 0 0 0 0 0 0 0 0 0 0 0 0 0 0 0 0 0 0 0 0 0 0 0 0 0 0 0 0 0 0 0 0 0 0
0 0 0 0 0 0 0 0 0 0 0 0 0 0 0 0 0 0 0 0 0 0 0 0 0 0 0 0 0 0 0 0 0 0 0 0 0 0
0 0 0 0 0 0 0 0 0 0 0 0 0 0 0 0 0 0 0 0 0 0 0 0 0 0 0 0 0 0 0 0 0 0 0 0 0 0
Wind_Speed
2 2 2 2 2 1 1 1 1 1 1 0 0 1 2 2 4 2 2 4 6 6 5 5 4 4 3 3 3 2 2 2 2 1 1 2 2 2
2 2 2 2 2 2 2 1 1 1 1 1 0 1 1 2 4 2 2 4 5 6 7 6 5 5 4 4 3 3 2 2 2 2 2 2 2 2
2 2 2 2 2 2 1 1 1 0 1 1 0 1 1 2 2 2 2 2 3 6 7 7 6 6 5 5 4 3 3 3 3 2 2 2 2 2
1 1 1 1 1 2 2 2 1 0 0 1 0 0 1 1 2 1 1 1 2 5 8 8 7 7 6 6 5 5 4 4 3 3 2 2 2 2
1 1 1 1 1 1 2 2 1 1 0 1 1 1 1 1 1 1 1 0 1 3 6 7 8 7 7 7 7 6 6 5 5 4 3 3 2 2
1 1 2 1 1 1 2 1 1 1 0 1 1 1 1 1 1 1 1 1 1 2 2 4 6 8 8 8 8 7 7 6 5 5 4 4 4 3
1 1 1 2 1 1 1 1 1 1 1 0 1 0 0 0 1 1 1 1 2 1 1 2 3 3 5 7 8 8 8 7 7 6 6 5 5 5
2 1 2 3 2 2 1 1 1 1 1 1 1 1 1 1 1 1 1 1 2 1 1 2 3 3 3 4 8 10 10 9 9 8 7 7 6 6
1 2 2 1 2 2 2 2 2 3 3 2 2 2 2 1 1 2 2 2 2 2 1 2 2 2 3 4 9 11 11 10 10 9 8 8 7 7
2 1 1 1 1 1 1 1 1 2 3 3 2 3 2 2 2 2 2 2 2 2 1 2 2 2 1 2 7 10 11 11 11 10 9 8 8 7
3 2 2 2 1 1 1 1 1 1 2 1 2 3 3 4 3 1 2 2 2 2 1 1 1 1 1 2 4 8 9 9 9 9 9 8 8 7
2 2 1 1 1 2 2 1 2 2 2 2 2 3 4 4 4 3 2 2 2 2 1 1 1 1 1 1 1 2 4 6 8 8 8 8 7 5
2 1 1 2 2 2 3 3 3 3 3 3 2 2 2 2 2 3 3 2 2 2 1 1 1 1 1 2 1 2 2 2 3 4 6 7 7 7
2 1 1 3 3 4 3 3 3 3 2 2 2 2 2 2 2 2 3 3 3 3 2 1 1 2 2 2 2 2 2 2 2 3 3 5 7 9
2 1 1 3 3 3 5 5 3 2 2 2 2 2 2 2 1 2 2 2 3 3 3 2 2 2 2 3 3 2 2 2 2 2 2 3 3 4
1 2 4 5 3 2 2 2 3 2 2 2 2 2 1 1 1 2 2 2 2 2 2 3 3 3 3 3 2 3 2 2 2 2 2 2 3 4
1 2 2 2 2 2 2 2 2 2 2 2 2 2 2 2 2 1 1 1 2 2 2 1 2 2 3 3 2 2 2 2 2 2 2 2 3 3
1 2 2 2 2 2 2 2 2 1 1 1 2 2 2 2 2 1 1 2 2 2 2 1 1 2 2 2 3 3 3 3 2 2 2 3 3 3
2 2 2 2 2 2 1 1 1 1 1 2 2 2 2 2 2 2 2 2 2 2 2 1 1 1 3 4 3 2 2 3 2 2 2 3 3 3
3 3 2 2 1 1 1 1 1 1 1 2 2 2 2 2 2 2 2 2 2 2 2 2 2 2 3 4 4 3 4 4 3 3 3 2 3 3
2 2 2 2 1 1 1 1 1 1 1 1 1 2 2 2 2 2 2 2 2 2 3 3 3 4 3 2 3 4 3 4 4 3 3 3 3 3
2 3 2 2 1 1 1 1 1 2 1 1 2 2 2 2 2 2 2 2 2 2 3 3 3 2 2 3 4 4 4 3 3 4 5 5 4 4
2 2 2 2 1 1 1 2 2 2 1 1 2 2 2 2 2 2 2 2 2 2 3 3 3 2 3 4 4 4 4 3 2 2 3 4 7 8
Wind_Direction
251 255 261 280 290 290 268 243 227 279 302 3 31 119 119 117 144 152 144 163 174 176 178 180 178 172 165 162 155 153 156 147 140 144 160 166 175 184
242 265 267 281 302 284 274 269 257 228 263 295 248 128 126 124 130 134 137 157 176 180 183 184 185 180 174 168 162 154 150 146 142 133 137 159 173 184
254 261 267 276 309 304 299 296 291 190 245 284 51 104 92 95 131 160 180 176 171 180 182 184 187 188 186 180 176 168 165 165 161 154 153 164 171 176
242 259 271 289 317 320 325 308 307 126 141 310 309 155 144 142 154 203 211 169 169 181 187 190 191 193 192 190 188 185 181 178 176 177 181 183 186 191
238 253 261 276 293 313 299 310 326 342 156 221 246 187 186 153 149 233 261 236 227 184 183 191 198 199 199 198 197 195 193 192 189 187 190 193 203 214
209 227 240 215 203 269 272 309 328 328 270 224 204 200 204 166 149 177 257 250 257 227 168 191 198 202 206 201 198 197 197 196 194 193 199 205 210 217
208 215 220 139 155 229 288 337 315 295 284 267 238 251 297 305 211 217 243 268 264 215 187 210 193 197 205 206 203 203 201 200 199 199 203 210 215 216
210 203 204 171 158 160 188 210 257 254 280 300 287 270 268 271 276 266 258 276 278 231 218 239 194 198 199 195 195 198 204 205 204 204 206 210 212 214
241 222 237 191 171 184 194 213 244 252 226 221 253 263 259 263 277 282 275 263 270 253 234 242 211 219 216 203 186 192 199 204 207 209 210 211 214 215
241 212 183 161 240 203 226 226 242 251 235 221 233 252 256 246 252 262 261 273 276 264 222 247 238 231 233 190 196 199 204 208 210 210 211 212 213 216
232 205 179 187 211 163 208 261 286 285 272 270 233 239 243 243 248 262 262 262 279 275 247 251 263 273 256 232 209 205 210 214 216 213 212 213 213 212
237 191 146 185 174 167 190 235 263 287 305 302 283 257 240 230 223 222 241 261 279 286 272 282 289 326 294 262 227 202 212 225 222 218 216 217 212 204
265 240 169 160 171 185 208 223 233 255 279 274 266 256 246 228 211 216 221 239 253 275 279 298 312 312 284 291 278 233 206 207 205 217 221 225 213 201
269 268 190 196 209 215 217 230 235 256 261 267 267 260 256 251 239 226 219 228 229 237 228 207 254 250 272 287 284 261 242 224 206 207 206 212 221 223
284 280 241 226 229 226 228 235 238 243 246 251 255 256 249 247 243 240 235 234 246 246 238 227 242 251 255 262 264 262 263 250 230 217 205 201 204 207
278 275 243 231 235 234 233 222 226 238 250 257 259 258 258 255 251 247 245 243 255 264 241 219 225 239 263 266 257 265 260 249 245 235 221 218 214 210
305 262 245 234 221 215 209 211 216 218 237 257 269 275 272 266 264 256 258 273 267 272 288 273 243 232 241 262 266 265 271 263 240 236 244 247 238 227
229 250 246 249 247 235 224 221 219 227 255 274 279 274 271 267 264 267 269 252 255 271 287 289 298 299 292 282 253 265 269 268 258 242 247 258 256 242
227 251 250 245 258 258 248 261 262 263 260 268 264 260 259 259 256 253 252 262 264 270 271 274 275 275 283 290 295 262 265 277 279 263 249 253 260 253
249 257 253 247 248 249 257 275 273 266 260 265 275 278 280 276 274 268 259 261 266 268 278 278 271 258 254 271 287 286 251 249 254 257 259 272 278 273
266 276 279 280 270 248 244 239 250 262 265 268 287 291 288 286 285 290 292 289 281 273 275 276 273 265 261 266 272 275 271 251 244 245 257 270 278 274
264 270 273 287 291 267 241 257 273 273 282 293 298 297 297 296 289 284 279 274 272 276 280 286 284 276 264 262 269 269 275 282 270 258 260 251 242 249
245 251 262 273 275 270 262 254 257 259 263 284 294 299 300 292 284 283 284 282 286 294 297 292 290 280 271 268 276 281 277 277 276 277 281 272 254 254